Location: Dillon
(41.1766°N, 107.0923°W)
Time: 12:38:15
(UTC+00:00)

RS-44 - Pass Details

Date: 04 July 2022
Orbit: 1175 x 1510 km, 82.5° (Epoch: 07 August)

Event Time Altitude Azimuth Distance (km) Brightness Sun altitude
Rises 03:47:25 0° 201° (SSW) 4,332 ? -10.2°
Reaches altitude 10° 03:50:11 10° 205° (SSW) 3,407 ? -10.6°
Maximum altitude 03:58:12 57° 283° (WNW) 1,646 ? -11.7°
Drops below altitude 10° 04:06:49 10° 1° (N) 3,637 ? -12.8°
Sets 04:09:52 0° 6° (N) 4,642 ? -13.2°
